www.pogodaiklimat.ru

АРХИВ ПОГОДЫ в Анапе

Время (UTC), дата Ветер
(напр.,м/с)
 
Видим.   Явления Облачность Т
(С)
Тd
(С)
f
(%)
Тe
(С)
Тes
(С)
Комфортность P
(гПа)
Po
(гПа)
Тmin
(С)
Tmax
(С)
R
(мм)
S
(см)
03 11.01 СВ 6 10 км 5/0
[Ac As]
+1.5 -1.7 79 -5 -5 по сезону 1019.1 1014.9 -1.0 6
06 11.01 В 5 10 км 5/0
[Ci sp]
+2.4 -2.2 72 -3 -3 по сезону 1019.7 1015.5
09 11.01 ЮВ 6-11
{14}
20 км 9/3 600 м
[Sc Ac trans Ci sp]
+9.6 +3.7 67 +6 +7 тепло 1019.9 1015.8
12 11.01 ЮЗ 8-10
{14}
10 км слабый ливневой дождь 10/10 300 м
[Cb cap]
+8.2 +4.3 76 +4 +4 по сезону 1021.6 1017.5
15 11.01 ЮЗ 8-10
{12}
10 км {ливн. осадки} 3/0
[Ac trans]
+8.1 +3.3 72 +4 +4 тепло 1023.5 1019.4 +9.6 1
18 11.01 Ю 6
{12}
10 км {ливн. осадки} 4/0
[Ci sp]
+7.6 +2.7 71 +4 +4 тепло 1024.4 1020.3
21 11.01 Ю 9-11
{12}
10 км 9/9 600 м
[Sc]
+7.6 +2.5 70 +3 +3 тепло 1023.3 1019.2
00 12.01 Ю 6-12
{13}
10 км 8/3 600 м
[Sc Ci sp]
+7.9 +3.7 75 +4 +4 тепло 1021.9 1017.8
03 12.01 Ю 10-14
{16}
10 км 8/3 600 м
[Sc Ac trans Ci sp]
+8.8 +5.5 80 +4 +4 тепло 1018.5 1014.4 +7.4
06 12.01 Ю 9-15
{15}
10 км 9/0
[Ac trans]
+9.3 +6.0 80 +5 +5 тепло 1016.3 1012.3
09 12.01 Ю 11-16
{17}
10 км 8/0
[Ac trans Ci sp]
+9.8 +6.8 82 +5 +5 тепло 1013.3 1009.3
12 12.01 Ю 12-18
{19}
10 км 8/0
[Ci sp]
+9.4 +6.2 80 +4 +4 тепло 1009.6 1005.6
15 12.01 Ю 11-16
{18}
10 км 10/0
[Ac trans Ci sp]
+9.2 +5.0 75 +4 +4 тепло 1008.9 1004.9 +10.1
18 12.01 З 3-10
{21}
4000 м слабый ливневой дождь 10/10 300 м
[Cb cap]
+3.9 +2.9 93 0 0 по сезону 1011.2 1007.1
21 12.01 З 4
{11}
4000 м слабый ливневой снег 10/10 300 м
[Cb cap]
+1.8 +0.5 91 -3 -3 по сезону 1014.7 1010.6
00 13.01 ЮЗ 4 4000 м дымка {ливн. осадки} 10/10 300 м
[Cb cap]
+2.3 +0.1 85 -3 -3 по сезону 1015.9 1011.8
03 13.01 С 3 10 км в посл. час ливневой дождь 10/10 300 м
[Cb cap]
+1.6 -0.1 88 -3 -3 по сезону 1016.8 1012.7 +1.3 8
06 13.01 СЗ 2 10 км {ливн. осадки, снег} 10/3 600 м
[Sc Ac und]
+1.5 -3.1 71 -2 -1 по сезону 1018.4 1014.2 +0.9
09 13.01 С 1 10 км 8/6 600 м
[Sc Ac trans]
+2.4 -3.9 63 +1 +2 по сезону 1019.6 1015.4
12 13.01 З 1 10 км ясно +4.0 -3.0 60 +3 +5 по сезону 1020.0 1015.9
15 13.01 В 1 10 км 3/0
[Ac trans Ci fib]
+2.4 -3.0 67 +1 +1 по сезону 1021.3 1017.1 +4.3
18 13.01 СВ 2 10 км 6/0
[Ci fib]
+1.5 -2.4 75 -2 -2 по сезону 1021.2 1017.0
21 13.01 В 3 10 км 8/3 600 м
[Sc Ac trans Ci fib]
+2.6 -1.8 73 -1 -1 по сезону 1019.7 1015.5
00 14.01 Ю 8-12
{12}
10 км 9/3 600 м
[Sc Ac trans]
+5.6 +0.2 68 0 0 по сезону 1018.9 1014.8
03 14.01 Ю 8-11
{12}
10 км 10/4 600 м
[Sc Cs]
+6.6 +2.6 76 +1 +1 по сезону 1017.7 1013.6 +0.9
06 14.01 ЮВ 5
{13}
10 км 5/3 600 м
[Cu Sc Ci sp]
+6.7 +0.6 65 +3 +3 тепло 1016.7 1012.6
09 14.01 Ю 7-12
{14}
10 км 9/8 600 м
[Cu Sc Ac As]
+7.8 +2.8 71 +3 +4 тепло 1015.4 1011.3
12 14.01 Ю 6-10
{13}
10 км 9/6 600 м
[Sc Ac As]
+8.0 +2.8 70 +4 +4 тепло 1014.7 1010.7
15 14.01 В 1 10 км 9/3 600 м
[Sc Ac As Ci sp]
+6.6 +1.5 70 +6 +6 тепло 1014.6 1010.5 +9.2
18 14.01 В 3 10 км 3/0
[Ci sp]
+4.7 +0.7 75 +1 +1 по сезону 1013.3 1009.3
21 14.01 В 2 10 км 9/0
[Ac As Ci sp]
+5.8 -0.5 64 +4 +4 тепло 1012.7 1008.6
00 15.01 В 2 10 км 6/0
[Ac As]
+5.1 +0.2 71 +3 +3 тепло 1013.2 1009.1
03 15.01 СВ 3 10 км 3/0
[Ac As]
+3.8 +0.2 77 0 0 по сезону 1012.6 1008.5 +3.8
06 15.01 ЮВ 2 10 км 5/0
[Ac trans Ci sp]
+6.9 +1.7 69 +5 +5 тепло 1013.6 1009.5 +2.9
09 15.01 Ю 4 20 км 3/0
[Ci sp]
+10.8 +5.1 68 +9 +11 тепло 1013.8 1009.8
12 15.01 Ю 6-10
{11}
20 км 9/3 600 м
[Sc Ac trans]
+9.3 +5.4 77 +6 +6 тепло 1014.6 1010.6
15 15.01 Ю 5
{12}
10 км 9/9 600 м
[Sc]
+8.8 +3.9 71 +6 +6 тепло 1015.5 1011.5 +11.1
18 15.01 ЮВ 2 10 км 10/10 600 м
[Cb cap]
+8.9 +6.6 85 +7 +7 тепло 1016.7 1012.7
21 15.01 Ю 6 10 км {ливн. осадки} 10/10 600 м
[Cb cap]
+8.8 +6.2 84 +5 +5 тепло 1017.9 1013.8
00 16.01 Ю 4
{10}
10 км слабый ливневой дождь 10/10 300 м
[Cb cap]
+7.1 +3.8 80 +4 +4 тепло 1019.2 1015.1
03 16.01 С 3 4000 м слабый ливневой дождь 10/10 300 м
[Cb cap]
+3.3 +2.6 95 -1 -1 по сезону 1019.8 1015.7 +3.3 6
06 16.01 С 4 4000 м дымка {ливн. осадки} 10/10 600 м
[Cb cap]
+2.0 +1.2 94 -3 -3 по сезону 1021.2 1017.0 +2.0
09 16.01 С 2 4000 м 10/10 300 м
[St]
+2.1 +1.4 95 -1 -1 по сезону 1022.3 1018.1
12 16.01 С 3 4000 м дымка 10/10 300 м
[St]
+2.3 +1.8 96 -2 -2 по сезону 1021.9 1017.7
15 16.01 СВ 4 4000 м дымка 10/10 300 м
[St]
+2.3 +1.9 97 -3 -3 по сезону 1021.4 1017.3 +3.2 0.6
18 16.01 СВ 5 4000 м дымка 10/10 300 м
[St]
+2.3 +1.5 94 -3 -3 по сезону 1021.5 1017.3
21 16.01 СВ 4 10 км слабый дождь 10/10 300 м
[Frnb Ns]
+3.1 +1.5 89 -2 -2 по сезону 1021.7 1017.6
00 17.01 СВ 5 4000 м слабый дождь 10/10 300 м
[Frnb Ns]
+3.5 +2.3 92 -2 -2 по сезону 1021.3 1017.2
03 17.01 СВ 4 10 км {дождь} 10/10 600 м
[Sc]
+4.0 +1.9 86 -1 -1 по сезону 1020.6 1016.5 +2.0 2
06 17.01 СВ 6-10
{10}
10 км {дождь} 10/0
[Ac und]
+5.1 +1.5 78 0 0 по сезону 1021.5 1017.4
09 17.01 В 5
{11}
10 км 8/0
[Ac trans Ci sp]
+7.1 +1.9 69 +3 +5 тепло 1021.7 1017.6
12 17.01 СВ 4 20 км 3/0
[Ci sp]
+8.4 +1.7 63 +6 +7 тепло 1022.0 1017.9
15 17.01 СВ 7-11
{12}
10 км 3/0
[Ci fib]
+4.3 +0.8 78 -1 -1 по сезону 1022.4 1018.3 +8.9
18 17.01 СВ 5
{11}
10 км 4/0
[Ci fib]
+3.5 +1.1 84 -2 -2 по сезону 1023.0 1018.8
21 17.01 СВ 6
{10}
10 км ясно +3.0 +0.9 86 -3 -3 по сезону 1022.8 1018.6
00 18.01 СВ 6-10
{10}
10 км ясно +2.3 +0.6 89 -4 -4 по сезону 1023.1 1018.9

 

Местоположение метеостанции Анапа (Краснодарский край, Россия): широта 44.88 долгота 37.28 высота над уровнем моря 32 м.

В архиве по умолчанию представлена погода в Анапе за последнюю неделю. Архивные данные за месяц целиком и за предыдущие месяцы, начиная с января 2011 года, Вы можете получить, выбрав интересующий диапазон дат из раскрывающегося списка и нажав кнопку "Ввод!".

Внимание! Время в таблицах - всемирное. Для получения местного времени необходимо прибавить поправку, которая в Анапе равна 3 ч.

Ветер - указаны скорость ветра в м/с - средняя за 10 мин, порывы в срок и между сроками (в фигурных скобках) и направление, откуда дует ветер: С - северный, СВ - северо-восточный, В - восточный, ЮВ - юго-восточный, Ю - южный, ЮЗ - юго-западный, З - западный, СЗ - северо-западный.
Видимость - горизонтальная дальность видимости в метрах или километрах. При видимости от 1 до 10 км при отсутствии осадков обычно наблюдается дымка, при ухудшении видимости до 1 км и менее - туман. В сухую погоду видимость может ухудшаться дымом, пылью или мглою.
Явления - указаны атмосферные явления, наблюдавшиеся в срок или в последний час перед сроком; фигурными скобками обозначены явления, наблюдавшиеся между сроками (за 1-3 часа до срока); квадратными скобками обозначены град или гололедные отложения с указанием их диаметра в мм.
Облачность - указаны через наклонную черту общая и нижняя облачность в баллах и высота нижней границы облаков в метрах; квадратными скобками обозначены формы облаков: Ci - перистые, Cs - перисто-слоистые, Cc - перисто-кучевые, Ac - высококучевые, As - высокослоистые, Sc - слоисто-кучевые, Ns - слоисто-дождевые, Cu - кучевые, Cb - кучево-дождевые. Подробнее классификацию облаков см. в Атласе облаков (PDF).
T - Температура воздуха - температура, измеренная на высоте 2 м над землей.
Td - Температура точки росы - температура, при понижении до которой содержащийся в воздухе водяной пар достигнет насыщения.
f - Относительная влажность воздуха - влажноcть воздуха, измеренная на высоте 2 м над землей.
Te - Эффективная температура - температура, которую ощущает одетый по сезону человек в тени. Характеристика душности погоды. При расчете учитывается влияние влажности воздуха и скорости ветра на теплоощущения человека.
Tes - Эффективная температура на солнце - температура, которую ощущает человек, с поправкой на солнечный нагрев. Характеристика знойности погоды. Зависит от высоты солнца над горизонтом, облачности и скорости ветра. Ночью, в пасмурную погоду, а также при ветре 12 м/с и более поправка равна нулю.
P - Атмосферное давление - приведенное к уровню моря атмосферное давление.
Po - Атмосферное давление - измеренное на уровне метеостанции атмосферное давление.
Tmin - Минимальная температура - минимум температуры воздуха на высоте 2 м над землей.
Tmax - Максимальная температура - максимум температуры воздуха на высоте 2 м над землей.
R - Количество осадков - Количество выпавших осадков, мм. При наведении курсора мыши на число - период времени, за который выпало указанное количество осадков.
S - Снежный покров - Высота снежного покрова, см. При наведении курсора мыши на число - состояние снежного покрова и степень покрытия местности в баллах.